Location: Arrien
(42.8963°N, 1.0429°E)
Time: 14:12:50
(UTC+00:00)

VELOX 1 - Visible Passes

Search period start: 11 April 2026 00:00
Search period end: 21 April 2026 00:00
Orbit: 570 x 581 km, 98.3° (Epoch: 11 April)

Date Brightness Start Highest point End Pass type
(mag) Time Alt. Az. Time Alt. Az. Time Alt. Az.
13 Apr ? 00:03:15 10° N 00:03:18 10° N 00:03:18 10° N visible
14 Apr ? 00:06:46 10° NNW 00:06:53 11° NNW 00:06:53 11° NNW visible
15 Apr ? 00:10:18 10° NNW 00:10:28 11° NNW 00:10:28 11° NNW visible
16 Apr ? 00:13:50 10° NNW 00:14:02 11° NNW 00:14:02 11° NNW visible
17 Apr ? 00:17:21 10° NNW 00:17:36 11° NNW 00:17:36 11° NNW visible
18 Apr ? 00:20:53 10° NNW 00:21:10 11° NNW 00:21:10 11° NNW visible
18 Apr ? 22:48:23 10° NNE 22:48:29 10° NNE 22:48:29 10° NNE visible
19 Apr ? 00:24:25 10° NNW 00:24:43 11° NNW 00:24:43 11° NNW visible
19 Apr ? 22:51:46 10° NNE 22:52:01 12° NNE 22:52:01 12° NNE visible
20 Apr ? 00:27:58 10° NNW 00:28:16 11° NNW 00:28:16 11° NNW visible
20 Apr ? 22:55:08 10° NNE 22:55:33 13° NNE 22:55:33 13° NNE visible
